Home > Time Zones > World Clock > Weather > Norway > Odda > Past weeks

Flag for Norway Weather past 2 weeks in Odda, Norway

Now
51 °F

Passing clouds.


Feels Like: N/A
Forecast: 57 / 68 °F
Wind: N/A

Location: Sauda

Current Time: Aug 5, 2015 at 6:35:55 AM

Latest Report: Aug 5, 2015 at 5:00 AM


Visibility: 19 mi

Pressure: 29.89 "Hg

Humidity: 89%

Dew point: 48 °F

Location of OddaLocation

Historic Weather in Odda — Graph

°F

Odda temperature yesterday

Maximum temperature yesterday: 69 °F (at 12:00 PM)
Minimum temperature yesterday: 58 °F (at 9:00 PM)
Average temperature yesterday: 62 °F

Past Weeks' High & Low Weather Summary

 TemperatureHumidityPressure
High72 °F (Aug 3, 6:00 PM)91% (Jul 21, 10:00 AM)30.16 "Hg (Jul 21, 10:00 AM)
Low45 °F (Aug 3, 4:00 AM)28% (Aug 3, 6:00 PM)29.38 "Hg (Jul 29, 11:00 AM)
Average56 °F73%29.76 "Hg
* Reported Jul 21 4:00 AM — Aug 5 4:00 AM, Odda, Weather by CustomWeather, © 2015

Note: Actual official high and low records may vary slightly from our data, if they occured in-between our weather recording intervals... More about our weather records

Advertising

Odda weather history for previous 24 hours

 ConditionsComfort  
Time TempWeatherWind HumidityBarometerVisibility
4:00 AM
Wed, Aug 5
53 °FCool.N/A89%29.88 "HgN/A
3:00 AM55 °FCool.N/A88%29.88 "HgN/A
2:00 AM56 °FCool.N/A89%29.87 "HgN/A
1:00 AM57 °FCool.N/A88%29.86 "HgN/A
12:00 AM57 °FCool.N/A87%29.85 "HgN/A
10:00 PM
Tue, Aug 4
59 °FCool.N/A91%29.82 "HgN/A
9:00 PM58 °FCool.N/A91%29.83 "HgN/A
8:00 PM58 °FRain. Low clouds.N/A91%29.82 "Hg1 mi
7:00 PM58 °FCool.N/A89%29.81 "HgN/A
6:00 PM60 °FCool.N/A89%29.82 "HgN/A
5:00 PM59 °FCool.N/A88%29.84 "HgN/A
4:00 PM60 °FCool.N/A88%29.84 "HgN/A
3:00 PM62 °FCool.N/A82%29.84 "HgN/A
2:00 PM63 °FSprinkles. Overcast.N/A74%29.83 "Hg16 mi
1:00 PM66 °FMild.N/A59%29.85 "HgN/A
12:00 PM69 °FMild.N/A52%29.84 "HgN/A
11:00 AM64 °FMild.N/A64%29.84 "HgN/A
10:00 AM64 °FMild.N/A63%29.84 "HgN/A
9:00 AM67 °FMild.N/A54%29.84 "HgN/A
8:00 AM66 °FPartly sunny.N/A55%29.85 "Hg19 mi
7:00 AM64 °FMild.N/A54%29.84 "HgN/A
6:00 AM63 °FMild.N/A57%29.85 "HgN/A
Weather by CustomWeather, © 2015

See weather overviewHow to use our weather pages